This is the latest recevied weather packets stored in our database for station/object VK4AB-13. If no packets are shown the sender has not sent any weather packets the latest 10 day(s).
| Time | Temp. | Humidity | Pressure | Rain* | Wind** | Luminosity | Snow |
|---|---|---|---|---|---|---|---|
| 1778114624 | 25.56° C | 61% | 1015.4 hPa | 0 mm | - | 703 W/m² | - |
| 1778114324 | 25.56° C | 61% | 1015.5 hPa | 0 mm | - | 671 W/m² | - |
| 1778114024 | 25.56° C | 62% | 1015.6 hPa | 0 mm | - | 696 W/m² | - |
| 1778113724 | 25° C | 65% | 1015.7 hPa | 0 mm | - | 396 W/m² | - |
| 1778113424 | 25° C | 66% | 1015.7 hPa | 0 mm | - | 557 W/m² | - |
| 1778113124 | 24.44° C | 67% | 1015.7 hPa | 0 mm | - | 691 W/m² | - |
| 1778112824 | 24.44° C | 69% | 1015.7 hPa | 0 mm | - | 564 W/m² | - |
| 1778112524 | 23.89° C | 71% | 1015.9 hPa | 0 mm | - | 635 W/m² | - |
| 1778112224 | 23.89° C | 72% | 1016 hPa | 0 mm | - | 603 W/m² | - |
| 1778111924 | 23.33° C | 73% | 1016.1 hPa | 0 mm | - | 234 W/m² | - |
| 1778111624 | 23.33° C | 74% | 1016.1 hPa | 0 mm | - | 297 W/m² | - |
| 1778111324 | 23.33° C | 74% | 1016.2 hPa | 0 mm | - | 253 W/m² | - |
| 1778111024 | 23.33° C | 74% | 1016.4 hPa | 0 mm | - | 461 W/m² | - |
| 1778110724 | 23.33° C | 75% | 1016.2 hPa | 0 mm | - | 381 W/m² | - |
| 1778110424 | 23.33° C | 76% | 1016.3 hPa | 0 mm | - | 338 W/m² | - |
| 1778110124 | 22.78° C | 78% | 1016.4 hPa | 0 mm | - | 448 W/m² | - |
| 1778109824 | 22.78° C | 78% | 1016.5 hPa | 0 mm | - | 206 W/m² | - |
| 1778109524 | 22.78° C | 80% | 1016.6 hPa | 0 mm | - | 218 W/m² | - |
| 1778109224 | 22.78° C | 82% | 1016.4 hPa | 0 mm | - | 621 W/m² | - |
| 1778108924 | 22.22° C | 84% | 1016.5 hPa | 0 mm | - | 452 W/m² | - |
| 1778108624 | 21.67° C | 85% | 1016.6 hPa | 0 mm | - | 473 W/m² | - |
| 1778108324 | 21.67° C | 86% | 1016.6 hPa | 0 mm | - | 478 W/m² | - |
| 1778108024 | 21.67° C | 87% | 1016.7 hPa | 0 mm | - | 443 W/m² | - |
| 1778107724 | 21.11° C | 88% | 1016.6 hPa | 0 mm | - | 339 W/m² | - |
| 1778107424 | 21.11° C | 88% | 1016.5 hPa | 0 mm | - | 396 W/m² | - |
* Rain latest hour (hover to see other rain measurements)
** Current wind speed in m/s (hover to see current wind gust speed)